Skip Page Navigation
NASA JPL Caltech
NASA Logo - Jet Propulsion Laboratory + View the NASA Portal
+ Center for Near-Earth Object Studies
JPL Home Earth Solar System Stars & Galaxies Technology
JPL Solar System Dynamics
BODIES ORBITS EPHEMERIDES TOOLS PHYSICAL DATA DISCOVERY FAQ SITE MAP
JPL Small-Body Database Browser
Search: [ help ]  
1259 Ogyalla (1933 BT)
Classification: Main-belt Asteroid          SPK-ID: 2001259
Ephemeris | Orbit Diagram | Orbital Elements | Mission Design | Physical Parameters | Discovery Circumstances | Close-Approach Data ]

[ show orbit diagram ]
Orbital Elements at Epoch 2459200.5 (2020-Dec-17.0) TDB
Reference: JPL 45 (heliocentric ecliptic J2000)
 Element Value Uncertainty (1-sigma)   Units 
e .127237416823867 3.3353e-08  
a 3.103904819896235 1.2045e-08 au
q 2.708971988545488 1.0459e-07 au
i 2.380577057448687 3.5011e-06 deg
node 74.9932357297066 8.6172e-05 deg
peri 150.2368975806095 8.7196e-05 deg
M 310.2950179360427 1.4804e-05 deg
tp 2459476.277252480277
(2021-Sep-18.77725248)
8.2816e-05 TDB
period 1997.381485122606
5.47
1.1626e-05
3.183e-08
d
yr
n .180235975291371 1.0491e-09 deg/d
Q 3.498837651246983 1.3577e-08 au
  Orbit Determination Parameters
   # obs. used (total)      3604  
   data-arc span      33935 days (92.91 yr)  
   first obs. used      1928-02-23  
   last obs. used      2021-01-20  
   planetary ephem.      DE431  
   SB-pert. ephem.      SB431-N16  
   condition code      0  
   norm. resid. RMS      .43415  
   source      ORB  
   producer      Otto Matic  
   solution date      2021-Feb-24 00:53:53  

Additional Information
 Earth MOID = 1.69881 au 
 Jupiter MOID = 1.47987 au 
 T_jup = 3.207 
[ show covariance matrix ]

Ephemeris | Orbit Diagram | Orbital Elements | Mission Design | Physical Parameters | Discovery Circumstances | Close-Approach Data ]

Physical Parameter Table
Parameter Symbol Value Units Sigma Reference Notes
absolute magnitude H 10.64   n/a E2021B10  
diameter diameter 36.111 km 0.510 urn:nasa:pds:neowise_diameters_albedos::2.0[mainbelt] (http://adsabs.harvard.edu/abs/2014ApJ...791..121M)  
rotation period rot_per 17.334 h n/a LCDB (Rev. 2020-October); Warner et al., 2009 Published Reference List:
[Waszczak, A.; Chang, C.-K.; Ofeck, E.O.; Laher, F.; et al. (2015) Astron. J. 150, A75.]
[Mansego, E.A.; Rodriguez, P.B.; de Haro, J.L.; Chiner, O.R.; et al. (2016) Minor Planet Bull. 43, 332-336.]
[Erasmus, N.; Navarro-Meza, S.; McNeill, A.; Trilling, D.E.; et al. (2020) Ap. J. Suppl. Ser. 247, A13.]
geometric albedo albedo 0.066   0.019 urn:nasa:pds:neowise_diameters_albedos::2.0[mainbelt] (http://adsabs.harvard.edu/abs/2014ApJ...791..121M)  

1259 Ogyalla (1933 BT)          Discovered 1933-Jan-29 by Reinmuth, K. at Heidelberg
Reference: DISCOVERY.DBLast Updated: 2003-08-29

[ hide close-approach data ]
Close-Approach Data   ...sorted by Date/Time (TDB)
Date/Time (TDB) Time Uncertainty
(days_HH:MM)
Body Nominal Distance (au) Minimum Distance (au) Maximum Distance (au) V-relative (km/s) V-infinity (km/s) JD (TDB) Time Uncertainty (minutes) Semi-major axis (km) Semi-minor axis (km) range-LOV angle (deg) N-sigma BP Orbit Ref. Reference Modified
1902-Dec-11 11:14 00:02 Jupiter 1.93269990557086 1.93269864175817 1.93270116938376 3.19632087566296 3.05613314068939 2416094.968127567 1.94830252015052 80.0239533446255 20.2908566585725 -58.2197496252682 2319859.12958903 T 45 CATAB v2.0f-lin.ifort 2021-Feb-24 00:54:02 2021-Feb-24 00:54
1954-Jan-25 19:20 00:01 Jupiter 1.75572455675947 1.75572379415417 1.75572531936437 2.16104465906835 1.92490117754676 2434768.305437463 1.10962441521074 43.5160568477182 7.06051203888836 -82.7388764834312 1855391.14222574 T 45 CATAB v2.0f-lin.ifort 2021-Feb-24 00:54:02 2021-Feb-24 00:54
1963-Dec-17 07:08 < 00:01 Jupiter 1.50624254305036 1.50624215327685 1.50624293282567 1.45413796932432 0.994904249905797 2438380.797185727 0.909209692141116 195.846551584883 108.756548554118 51.9180100753172 2363351.77049501 T 45 CATAB v2.0f-lin.ifort 2021-Feb-24 00:54:02 2021-Feb-24 00:54
2024-Dec-21 20:42 < 00:01 Jupiter 1.66111802161768 1.66111769380259 1.66111834943257 1.83153196504821 1.52796830503423 2460666.362747486 0.302240263447693 49.8871361428583 23.2640574629955 -84.3590760981571 2833249.0970983 T 45 CATAB v2.0f-lin.ifort 2021-Feb-24 00:54:02 2021-Feb-24 00:54
2034-Nov-10 14:22 < 00:01 Jupiter 1.56392982513614 1.56392944383427 1.56393020643837 1.66900834258264 1.30475716077501 2464277.098719154 0.501457058484178 96.2798373192996 45.2692858419884 72.5080186541015 2692793.31870003 T 45 CATAB v2.0f-lin.ifort 2021-Feb-24 00:54:02 2021-Feb-24 00:54
2095-Nov-15 04:31 00:02 Jupiter 1.57946492485632 1.57946422706481 1.5794656226471 1.57599970566923 1.18795262956288 2486561.688043392 1.62518196215612 104.162610010885 73.3862633888726 37.2319894313327 1686763.55350194 T 45 CATAB v2.0f-lin.ifort 2021-Feb-24 00:54:02 2021-Feb-24 00:54
2105-Oct-02 23:53 00:02 Jupiter 1.64783386066334 1.64783290524908 1.64783481608042 1.99780297568912 1.72138698247895 2490170.495476232 1.84393089796919 148.524223643469 12.814087997914 84.0239272179815 2862429.0750874 T 45 CATAB v2.0f-lin.ifort 2021-Feb-24 00:54:02 2021-Feb-24 00:54
2166-Oct-11 07:00 00:03 Jupiter 1.52079003216581 1.52078924518591 1.52079081914519 1.41393561597646 0.940898287246043 2512458.791339490 2.89337656624928 233.58905233193 119.380648154569 21.8323635323119 1594887.69217442 T 45 CATAB v2.0f-lin.ifort 2021-Feb-24 00:54:02 2021-Feb-24 00:54
2176-Aug-30 00:57 00:03 Jupiter 1.73882053587853 1.7388187806268 1.7388222911347 2.38552201055166 2.17174256446442 2516069.539572937 3.08815978021918 184.004576022168 6.63281913437564 -82.3536665977149 2830573.86178793 T 45 CATAB v2.0f-lin.ifort 2021-Feb-24 00:54:02 2021-Feb-24 00:54

Alternate Designations
 1933 BT = 1928 DJ1 = 1928 FO = 1929 MA = 1935 QE1 = 1949 YN = 1956 JF 
Ephemeris | Orbit Diagram | Orbital Elements | Mission Design | Physical Parameters | Discovery Circumstances | Close-Approach Data ]
ABOUT SSD CREDITS/AWARDS PRIVACY/COPYRIGHT GLOSSARY LINKS
FirstGov 2021-Mar-01 20:51 UT
(server date/time)  
NASA Home Page
Site Manager:   Ryan S. Park
Webmaster  Alan B. Chamberlin